Wind_Speed
10 12 14 16 16 16 15 14 13 11 12 11 8 7 6 5 5 7 7 7 8 9 9 8 8 8 9 9 8 8 9 9 10 11 11 11 11 12 12 12 14 14 14 13 13 14 15 14 13 13 12 11 12 10 9 9 11 14 15 15 14 14 13 10 7 7 11 13 12 11 10 11 14 17 16 14 13 13 14 14 13 12 15 19 20
10 11 13 14 13 13 13 11 10 11 10 6 5 6 7 5 4 5 7 8 8 8 8 8 7 8 8 10 9 8 7 8 10 10 10 10 10 10 11 13 13 13 11 11 12 14 16 15 14 14 13 14 14 12 12 12 12 12 10 9 11 12 11 11 10 8 8 10 10 10 11 11 13 15 15 16 17 18 18 18 16 14 15 17 17
10 10 11 11 9 8 8 8 8 9 7 5 5 6 7 7 4 3 5 5 5 7 7 5 5 4 4 6 8 7 5 5 7 8 9 11 11 11 13 13 11 10 10 11 11 13 14 13 14 14 14 16 18 18 19 18 16 15 14 12 13 14 14 14 14 12 9 9 10 11 12 13 14 14 15 18 20 21 22 20 17 17 17 17 16
9 9 8 7 6 5 6 9 8 7 6 6 6 5 6 6 3 1 2 2 1 2 3 1 1 1 1 3 5 5 5 5 6 6 8 9 10 10 11 11 10 11 12 13 12 14 16 15 16 17 16 16 15 14 15 16 17 18 18 17 15 15 15 15 14 12 9 11 14 15 16 17 17 18 18 19 20 20 20 18 16 17 17 14 12
7 8 6 5 5 5 7 8 6 4 4 5 4 3 3 3 0 2 2 1 0 1 2 3 3 4 4 4 3 5 6 4 4 5 5 4 6 8 8 7 9 11 12 12 11 12 14 15 15 15 15 14 12 11 12 13 15 16 17 18 18 18 19 18 15 12 11 12 15 17 18 19 20 19 17 16 17 17 16 15 15 15 13 10 8
6 7 7 6 7 6 5 5 3 3 3 3 2 2 2 3 4 4 6 5 3 3 4 5 6 6 7 6 6 8 8 6 6 6 5 5 6 8 9 8 9 9 10 11 10 11 12 13 13 13 12 12 12 12 11 11 11 11 12 14 16 18 19 18 17 16 15 16 18 18 17 17 18 17 15 14 15 15 15 13 11 10 10 8 6
7 7 8 10 11 9 8 7 6 6 7 7 7 7 7 8 9 8 9 9 8 8 8 8 9 10 10 10 10 9 9 8 8 8 7 6 6 7 9 10 10 10 10 10 9 10 10 10 10 10 10 9 8 8 8 8 9 9 10 10 11 13 14 14 14 15 15 16 17 17 15 15 15 16 15 13 12 12 12 10 8 8 7 7 6
11 11 13 16 15 13 13 12 11 10 10 11 12 13 13 13 14 14 13 13 11 12 12 10 11 13 13 11 9 8 9 10 10 9 8 8 7 6 7 8 9 9 10 10 9 8 8 8 7 6 6 5 6 7 8 9 10 9 9 9 10 11 12 12 12 12 13 13 14 15 14 14 14 14 15 13 11 10 8 6 6 6 6 6 6
16 14 16 18 17 15 15 14 14 13 14 15 15 16 15 15 15 15 14 13 11 11 11 10 10 12 12 11 9 10 11 11 11 10 9 9 9 8 7 7 8 9 9 10 9 8 8 7 6 5 6 6 7 9 10 10 10 10 10 10 10 10 11 11 11 11 11 11 13 14 13 12 12 13 13 11 9 6 4 5 6 6 6 7 8
18 17 16 16 16 15 15 15 15 16 16 15 15 15 15 14 14 13 13 12 12 12 11 11 11 12 13 12 11 13 13 12 12 11 10 9 8 8 6 5 8 9 8 9 10 9 7 4 5 7 7 7 9 11 12 11 9 9 10 11 11 11 10 10 10 10 10 10 12 11 10 11 13 13 12 8 4 3 4 5 7 7 8 8 7
17 16 15 15 15 14 14 14 14 14 14 13 13 12 13 13 13 13 13 13 12 12 12 12 12 12 13 12 11 14 15 13 13 11 9 8 7 6 5 6 8 9 8 8 9 10 8 6 8 7 3 5 10 12 12 10 9 9 9 10 10 10 9 9 10 10 9 10 10 11 11 11 10 8 5 3 3 4 5 7 8 10 9 8 6
15 15 14 14 13 12 12 12 12 13 12 12 12 12 12 13 13 13 13 13 12 12 12 12 11 11 11 11 12 15 16 15 13 11 9 8 7 7 7 9 9 8 8 9 9 10 9 8 9 6 4 7 10 10 11 11 11 10 10 9 8 6 6 9 10 8 7 8 9 10 10 7 5 5 3 4 5 6 7 8 9 11 11 11 9
15 15 15 14 14 13 14 13 13 14 13 13 14 14 14 13 13 12 12 11 12 12 12 12 11 10 9 8 11 15 17 16 14 12 9 7 6 7 8 9 8 7 8 9 9 9 9 9 9 8 9 10 10 11 13 12 11 11 12 12 9 4 5 9 9 8 7 7 9 10 8 6 5 5 5 7 7 7 8 9 10 12 11 9 8
16 16 16 17 17 16 16 16 16 16 16 16 15 14 13 13 12 12 11 11 11 11 11 11 11 10 9 7 7 11 16 18 16 13 10 7 6 6 7 7 7 7 8 9 9 9 9 9 9 9 10 11 12 14 14 12 9 10 13 15 11 5 5 8 10 10 9 9 9 9 8 6 5 4 5 5 5 4 7 10 11 12 11 10 10
15 16 16 16 16 16 15 15 15 15 15 14 13 12 12 12 11 11 11 10 10 9 9 9 9 9 9 8 6 8 13 18 18 16 13 9 8 7 8 7 6 6 7 7 8 8 7 8 8 8 9 10 12 14 14 12 9 10 14 15 11 6 6 8 10 11 10 9 10 11 9 7 6 5 6 6 6 6 7 10 12 12 12 13 14
16 16 16 16 15 15 15 14 14 14 13 13 12 12 12 12 11 10 10 10 10 9 7 7 8 7 8 9 9 8 10 15 18 18 16 13 10 10 11 12 8 4 5 6 5 5 6 6 6 6 6 8 10 12 13 11 10 11 16 17 11 9 11 12 10 9 10 10 10 11 12 11 10 9 9 10 11 10 10 12 13 12 13 14 16
16 16 16 15 15 15 14 14 13 13 13 12 12 11 11 12 12 11 10 9 8 8 8 8 8 8 6 7 10 10 9 11 15 15 15 15 12 10 12 16 13 6 5 7 4 3 6 7 5 3 4 7 7 8 10 11 11 12 16 18 15 13 11 10 8 8 9 10 11 11 11 11 11 12 11 10 11 10 10 12 12 11 13 13 14
15 16 15 15 15 14 14 14 13 12 12 12 11 11 11 12 12 12 12 11 9 11 12 12 12 11 8 6 8 8 6 8 10 11 11 12 12 10 10 14 15 11 10 10 6 6 8 11 10 6 4 6 7 7 8 12 13 12 14 16 17 15 12 10 10 11 10 10 11 11 11 11 11 11 11 10 11 11 11 14 13 13 15 12 11
15 15 15 15 14 14 14 14 13 13 13 12 12 12 12 12 12 12 13 14 13 14 13 13 12 11 9 8 7 5 4 7 9 8 8 8 9 10 9 10 13 14 15 16 13 9 10 14 13 8 6 7 7 7 8 11 13 13 13 14 15 15 15 16 16 15 13 12 13 13 14 14 13 13 12 12 13 12 11 12 12 12 14 14 13
15 15 15 15 15 14 14 14 14 15 15 15 14 14 14 13 12 12 13 13 13 12 11 11 10 10 10 9 8 7 6 8 9 8 7 7 7 8 9 9 11 13 14 15 17 17 16 14 11 8 8 9 9 9 10 11 13 14 14 13 14 16 19 21 20 18 16 15 15 16 17 17 17 16 16 15 15 15 14 12 11 11 12 14 14
15 15 15 15 14 14 13 14 14 13 14 14 13 13 13 12 12 12 10 10 11 10 10 10 9 9 9 10 11 13 12 10 11 11 8 7 8 9 9 10 11 12 14 15 15 16 19 17 11 6 8 10 11 11 12 13 15 16 16 16 17 18 21 22 22 22 20 18 18 19 19 20 19 20 21 20 19 18 17 16 15 13 12 13 14
16 15 15 15 14 14 13 12 11 11 12 12 11 11 10 9 10 10 8 8 10 11 12 12 12 12 13 13 14 16 14 9 9 10 8 7 9 11 13 14 15 16 17 17 15 15 18 17 12 9 10 13 15 16 17 18 20 21 22 22 23 23 23 23 24 24 23 20 19 20 21 21 21 21 23 24 24 24 23 21 18 15 13 12 13
13 13 14 13 12 13 13 12 10 11 13 11 10 10 9 9 11 12 12 12 13 14 16 18 19 19 20 22 23 23 20 15 10 9 9 10 11 13 15 17 18 18 17 17 18 18 18 18 16 17 18 20 21 22 23 24 26 27 27 28 28 28 26 26 26 25 23 22 21 21 22 23 23 23 22 21 21 21 23 23 20 16 14 13 13
13 13 15 17 16 15 15 16 15 15 15 14 12 13 14 14 15 17 18 18 19 20 22 22 22 22 22 24 25 22 20 19 16 14 14 15 15 15 16 16 17 18 17 17 18 18 18 19 21 22 23 24 25 25 25 26 27 28 28 28 29 29 28 27 27 24 22 21 20 21 22 23 23 24 23 23 23 20 17 18 19 16 14 15 15
18 17 18 20 21 20 19 19 18 17 17 17 16 16 17 18 18 18 19 21 22 21 21 21 21 22 22 22 22 20 18 19 21 21 20 20 18 18 18 17 17 18 18 18 18 18 19 20 21 23 24 25 27 27 28 29 29 29 29 27 26 26 25 25 24 22 20 20 20 21 22 22 22 23 23 23 24 22 18 14 16 16 15 17 18
19 19 19 19 20 21 20 20 19 17 18 20 19 18 18 19 19 20 21 21 20 20 20 20 20 21 21 21 21 21 20 21 25 28 28 25 23 21 20 18 17 17 17 17 18 19 20 21 23 25 26 27 28 29 30 30 30 31 30 28 26 25 23 23 23 19 18 18 19 19 18 18 20 21 21 21 22 23 22 21 18 16 15 15 17
17 19 20 20 19 19 19 19 19 18 19 20 20 20 21 19 19 20 20 20 19 19 20 20 20 19 20 20 21 22 21 22 26 30 29 28 26 24 22 20 18 17 16 17 18 20 21 21 22 23 24 26 26 26 26 25 25 26 26 26 26 25 23 21 19 17 16 16 16 16 18 21 23 22 21 23 25 25 25 25 25 24 22 19 18
17 19 19 19 19 18 17 18 19 18 19 20 20 21 20 17 20 22 19 18 18 19 20 20 18 17 17 18 19 19 19 21 24 26 26 26 25 24 23 22 20 18 18 19 21 22 22 22 22 22 22 23 23 21 21 21 21 21 22 22 22 22 20 16 14 15 14 12 13 14 16 19 21 21 21 22 22 23 25 24 24 25 24 21 19
18 19 18 17 18 17 16 17 18 18 18 19 19 18 15 14 19 23 22 21 21 21 22 22 20 16 15 16 17 17 18 20 22 23 23 22 21 22 22 21 20 20 20 21 22 22 22 22 21 20 20 19 19 19 21 22 22 22 24 25 22 16 13 12 13 13 10 9 11 13 15 16 17 18 19 19 19 21 22 21 21 22 20 17 17
18 18 17 16 17 17 17 18 18 17 17 17 15 15 18 17 18 21 23 24 24 23 22 22 21 19 17 16 16 16 18 20 23 24 24 22 21 20 19 19 19 19 19 19 20 21 21 19 20 22 23 23 23 23 23 23 24 25 26 28 27 23 19 18 18 17 15 15 17 18 18 17 17 17 15 15 17 17 16 14 14 15 15 13 14
17 17 15 16 17 17 17 18 17 15 15 14 14 14 19 21 21 21 21 21 23 23 21 21 21 20 18 16 17 18 20 22 25 25 25 25 25 25 25 25 25 24 23 23 22 20 18 18 20 22 22 22 22 23 22 22 23 23 24 25 26 26 26 23 19 17 17 18 19 20 21 20 19 19 18 18 19 19 17 15 14 13 15 15 15
17 16 15 15 17 18 17 17 16 15 14 15 15 14 12 17 21 20 19 21 23 23 22 21 20 19 17 15 16 19 21 23 24 25 25 26 27 27 27 28 29 27 24 23 21 19 19 19 20 21 21 21 22 22 22 22 22 22 23 23 23 25 28 27 23 20 20 21 20 21 22 22 21 21 21 20 20 20 19 19 18 18 18 17 16
16 16 16 15 16 17 16 15 15 15 13 13 12 11 10 10 12 15 16 18 20 21 23 23 20 18 17 16 16 17 19 22 23 24 24 25 25 24 24 25 26 26 25 22 21 20 20 20 20 20 20 20 20 21 21 22 22 23 23 22 22 23 25 26 25 24 24 23 22 22 22 22 22 23 22 20 20 18 17 18 20 20 21 19 16
15 16 16 15 14 14 14 14 14 13 13 12 12 12 12 11 9 8 9 10 9 12 19 23 21 19 18 18 17 15 16 20 23 23 23 24 23 21 21 21 23 24 24 22 21 20 20 20 20 21 21 21 21 22 22 22 22 23 23 22 22 23 24 24 24 24 24 23 21 22 22 21 22 24 23 21 20 19 16 17 18 18 19 19 19
14 14 14 14 13 13 13 13 13 12 13 13 14 14 13 12 11 11 10 8 8 10 15 19 20 19 18 19 20 18 15 17 20 22 22 23 22 21 20 20 20 21 22 21 21 20 19 19 20 20 21 21 21 21 21 21 21 21 22 21 21 22 23 24 23 23 23 22 22 22 22 21 22 23 23 23 22 21 19 18 19 18 18 18 18
14 13 13 13 12 12 12 12 12 12 12 12 12 13 12 12 12 11 11 11 12 11 12 16 18 18 18 20 22 20 16 16 18 20 21 21 21 20 20 20 20 19 20 20 20 19 19 19 19 18 19 19 20 20 20 20 20 20 21 21 21 22 23 23 23 23 23 23 23 24 24 23 23 23 22 22 21 20 19 20 20 19 18 18 18
14 12 12 13 11 10 10 11 11 10 10 11 11 11 11 11 11 10 10 10 11 11 12 16 18 18 18 20 22 21 19 18 18 18 19 20 20 20 20 20 19 19 20 20 20 19 18 19 19 18 18 19 18 18 19 19 19 19 20 20 21 22 22 22 22 23 23 24 25 25 25 25 25 25 23 22 21 20 19 19 19 19 18 19 19
14 13 11 12 11 10 11 11 11 11 11 11 12 12 12 12 11 11 11 12 12 12 12 15 17 18 18 18 21 21 19 17 17 18 19 19 20 19 19 19 18 18 19 19 19 19 18 17 18 18 18 18 18 18 18 18 18 18 19 19 20 21 22 22 22 23 23 24 25 25 26 27 27 26 25 24 23 22 20 19 19 20 20 20 19
12 13 12 12 12 11 11 12 12 12 12 12 12 12 12 13 13 13 12 12 12 12 12 12 14 16 17 17 20 22 19 16 17 18 18 18 19 18 18 18 17 17 17 18 19 19 18 17 17 17 17 17 17 17 17 17 17 17 17 18 20 21 21 22 24 25 25 25 26 26 28 28 27 28 27 26 25 24 22 22 22 22 21 21 21
9 10 11 12 11 10 10 10 11 11 11 11 11 11 11 11 11 11 12 12 11 11 12 11 11 14 17 17 19 20 18 15 16 17 16 17 17 17 17 18 18 17 16 17 18 18 18 18 17 17 17 17 17 18 17 16 16 16 15 16 19 21 22 24 25 25 25 26 28 29 30 30 29 29 28 27 27 26 24 24 24 23 20 20 22
9 8 8 10 10 9 8 9 9 9 10 10 10 10 10 11 11 10 10 11 11 10 11 11 9 11 15 17 18 18 16 14 15 16 16 16 16 16 17 18 18 17 17 17 17 17 18 18 17 18 18 18 18 19 19 17 17 16 14 15 18 20 22 25 27 27 27 27 28 30 31 32 31 30 28 28 28 26 25 24 25 24 22 22 22
8 8 7 8 8 8 7 8 7 7 8 9 9 9 9 9 10 10 10 10 10 9 9 9 9 9 13 15 16 16 14 13 13 14 15 15 15 15 16 16 17 17 17 16 16 17 18 17 17 18 18 18 19 20 19 19 17 15 12 13 17 19 21 25 29 30 29 27 26 28 32 33 32 31 29 28 27 25 24 25 24 24 24 24 23
7 7 6 6 6 6 6 6 6 6 6 6 6 7 8 7 8 9 9 9 9 9 8 9 9 9 11 13 14 14 14 14 13 13 14 14 14 15 15 15 16 16 16 15 15 16 16 16 17 17 17 18 18 19 19 19 16 12 9 11 15 18 21 27 32 33 31 28 26 28 31 31 31 30 29 28 26 25 25 24 23 23 24 24 24
6 7 6 5 6 6 6 6 5 6 5 4 3 5 6 6 7 8 8 9 9 9 8 8 9 9 10 11 12 13 13 13 13 13 13 13 13 13 14 15 15 15 15 15 15 16 16 16 16 16 17 17 17 17 18 18 14 9 7 10 14 18 24 30 33 33 31 29 28 30 31 30 28 27 27 27 27 27 26 25 24 24 25 24 23
6 6 6 5 4 4 5 5 5 5 5 5 5 5 6 6 6 6 7 8 9 9 9 8 9 9 9 10 11 12 12 12 13 13 12 12 12 12 13 14 15 15 15 15 15 15 15 16 16 16 17 16 16 17 18 16 11 8 8 11 15 20 26 32 34 33 31 30 31 33 32 29 27 26 26 27 28 27 26 25 24 25 25 24 22
6 5 6 7 5 4 3 4 4 5 4 4 5 6 5 5 6 6 6 7 7 8 8 9 8 9 9 9 10 11 11 11 12 12 12 11 11 11 12 13 14 14 14 14 14 14 15 15 15 16 16 16 16 17 16 13 9 8 10 13 17 22 28 33 35 35 33 32 32 31 30 28 27 27 27 27 27 27 26 26 26 26 25 25 23
9 5 5 6 6 5 4 3 2 4 4 2 3 4 5 5 5 5 6 7 7 7 8 8 8 8 9 9 9 10 10 10 11 11 11 11 11 11 12 13 13 13 13 14 13 14 14 15 15 16 15 15 16 16 12 9 9 12 15 17 21 26 31 34 35 35 33 31 30 29 29 27 27 27 26 26 27 27 27 28 28 27 26 24 24
10 4 4 6 6 6 6 4 3 4 5 3 3 3 4 5 6 5 5 7 8 7 7 8 8 8 8 9 9 9 9 10 11 11 10 11 11 11 11 12 13 13 13 14 13 14 14 15 15 15 15 15 16 14 10 10 12 16 18 20 23 28 31 32 34 34 33 31 30 29 27 25 25 26 26 26 27 27 28 28 28 27 25 23 23
10 5 3 5 7 7 6 6 5 5 4 4 5 5 4 5 6 5 5 6 8 8 7 7 8 8 8 8 9 9 9 9 10 10 10 10 10 11 11 12 12 13 13 13 14 14 14 15 15 15 14 15 15 13 12 13 15 17 19 22 25 28 30 31 34 34 33 31 31 28 23 21 23 25 26 25 26 26 26 27 28 28 27 26 25
11 7 4 5 8 8 6 6 6 6 4 4 5 6 5 5 6 6 5 5 7 8 8 7 8 8 8 8 9 9 9 9 10 10 10 10 10 10 11 11 12 13 13 13 13 14 14 15 15 14 14 14 14 13 13 15 16 18 20 24 27 29 29 31 33 34 32 30 30 26 21 20 22 23 23 24 24 25 26 27 28 29 28 27 27
10 9 6 5 7 9 8 7 6 6 6 5 5 6 6 5 5 6 6 6 6 8 9 8 7 8 8 9 9 9 8 9 9 9 10 10 10 10 11 11 12 13 13 13 13 14 14 14 14 14 14 14 14 14 15 17 17 19 22 25 27 28 29 30 33 34 32 30 27 23 19 19 21 22 23 23 24 24 25 26 27 27 26 26 26
Wind_Direction
203 207 211 213 215 217 225 227 220 231 242 224 193 192 199 190 198 200 204 220 225 222 226 226 231 244 250 253 255 255 261 259 255 260 260 257 261 261 258 258 260 265 265 258 258 265 268 268 265 266 269 272 275 269 262 264 265 262 258 259 269 275 276 275 270 270 276 283 288 290 291 291 292 297 298 294 292 291 283 279 288 290 267 253 251
192 202 208 213 217 224 234 231 226 246 248 211 182 204 211 217 221 203 209 225 232 237 241 240 242 250 259 263 261 264 275 271 261 260 260 260 264 267 269 270 269 272 270 258 257 265 272 276 277 275 274 279 283 282 281 282 285 285 279 273 278 279 278 281 285 286 285 288 291 287 280 277 282 291 294 291 292 298 297 285 275 275 276 273 270
189 200 207 211 216 229 238 225 224 246 241 197 213 236 232 236 242 230 229 233 244 251 249 256 262 257 272 281 275 276 289 292 279 267 264 272 278 281 283 281 278 284 293 290 280 276 277 276 279 282 280 278 280 279 279 281 286 293 302 308 301 295 290 280 277 280 283 282 283 285 284 283 285 285 283 285 289 295 297 289 276 271 272 275 279
189 192 200 207 204 205 216 211 209 225 227 219 237 250 242 234 225 244 254 238 255 266 247 271 300 279 343 317 300 302 306 309 311 298 287 290 294 294 294 296 291 285 294 304 295 284 282 278 279 287 286 280 280 280 274 274 280 283 288 293 292 293 293 286 278 279 281 278 275 276 280 284 284 281 281 283 286 292 293 287 283 282 279 276 276
173 175 187 188 172 183 210 215 212 214 217 219 226 236 240 237 156 62 62 123 201 7 44 50 48 46 25 6 7 10 3 2 8 356 339 332 322 309 305 313 305 284 285 300 297 288 286 281 280 287 288 285 286 288 285 286 289 283 279 284 288 285 284 286 286 284 278 277 280 278 276 277 280 280 279 281 283 288 289 283 283 286 282 281 278
167 172 176 159 150 162 185 191 184 165 159 160 138 107 86 69 66 68 69 70 64 48 52 53 52 46 28 25 46 48 36 32 32 19 5 6 357 339 330 334 330 311 303 305 300 297 295 287 285 285 284 288 290 293 300 302 303 299 291 292 293 288 285 285 282 278 277 278 279 279 276 275 276 277 276 280 282 284 284 281 281 280 271 270 280
143 150 134 116 112 111 111 109 101 96 99 101 101 95 83 71 66 65 65 64 58 60 66 63 61 66 61 56 60 53 33 19 15 7 356 353 356 355 349 344 343 338 329 320 313 312 305 294 295 293 285 289 293 296 306 310 312 318 315 311 308 301 298 296 286 274 271 271 269 270 273 272 270 274 278 280 279 280 281 283 288 284 277 281 292
110 115 102 92 90 88 84 80 77 78 78 79 83 82 76 70 66 63 64 65 59 56 63 66 70 77 74 65 56 37 17 10 7 5 6 1 353 358 358 343 337 340 340 337 330 322 319 319 322 311 293 297 308 310 315 318 317 320 320 318 319 314 309 308 301 282 266 264 264 263 267 274 277 280 282 277 271 272 275 282 292 289 290 299 301
99 98 92 87 85 80 74 70 69 70 70 69 71 72 70 68 66 62 59 61 60 56 60 65 71 76 73 63 42 22 13 8 2 357 353 348 343 346 350 343 340 342 345 345 338 326 326 329 329 327 320 322 331 333 334 332 326 324 325 323 323 325 321 316 313 306 292 284 279 273 272 281 289 289 285 277 268 269 272 272 282 291 297 301 301
91 89 87 87 84 78 72 69 66 66 67 68 68 67 67 65 63 60 56 55 55 54 57 61 62 63 66 61 35 20 20 14 6 1 351 345 344 341 340 347 351 347 345 348 345 342 349 352 340 341 341 334 337 338 335 332 334 342 343 336 330 328 325 321 319 322 319 305 296 293 287 285 288 283 276 274 278 296 305 297 295 299 299 299 291
89 87 85 83 82 80 78 72 68 67 66 65 65 65 66 67 66 64 62 60 59 59 60 63 62 62 66 61 37 26 27 20 12 8 1 360 3 4 13 14 360 354 355 351 346 351 3 5 346 339 340 345 347 349 343 335 336 344 346 340 332 324 324 329 324 319 318 314 313 312 297 289 295 291 275 286 321 322 321 319 309 298 288 281 271
85 86 87 88 89 91 91 85 80 78 73 70 69 67 68 70 70 70 67 65 66 66 65 65 66 69 73 66 46 35 30 24 20 19 16 21 32 39 39 21 0 1 6 353 348 356 358 353 346 338 346 6 3 355 345 340 336 333 327 324 324 327 341 349 340 326 313 305 308 311 311 323 355 10 14 349 322 311 309 305 296 287 274 261 258
69 69 71 74 76 76 78 78 76 76 76 73 70 67 67 68 67 69 71 69 69 69 67 66 65 65 71 71 53 40 33 30 29 30 29 32 40 42 36 19 3 3 4 355 354 359 356 351 350 350 356 5 1 341 332 331 331 327 322 317 314 327 7 3 355 348 337 316 309 312 321 347 6 1 355 342 325 312 301 292 291 294 289 276 267
65 64 63 63 64 63 65 65 64 64 66 67 67 65 64 64 63 63 63 61 61 63 62 61 59 54 54 62 56 41 35 32 30 31 32 28 26 31 29 15 5 5 4 2 359 357 357 356 353 354 354 350 344 342 338 332 324 325 325 316 301 294 349 348 337 337 335 319 314 322 330 339 341 322 310 315 315 305 297 294 296 301 302 297 284
71 71 70 70 69 68 69 69 68 67 66 64 64 61 58 57 56 55 54 50 49 51 52 53 55 50 43 42 42 36 30 25 23 22 22 18 7 5 1 347 349 13 13 4 1 358 359 359 350 350 349 341 344 354 355 347 335 331 332 323 306 302 324 317 312 324 330 314 300 304 309 310 313 303 282 278 280 275 276 280 280 283 287 288 282
70 67 67 68 69 69 70 67 65 66 64 61 59 54 50 47 41 39 43 42 38 34 34 46 49 43 43 39 32 29 20 14 15 16 15 15 4 358 1 351 344 10 11 353 353 347 342 347 351 356 347 331 343 0 3 357 347 338 338 336 327 316 302 286 285 313 337 334 316 304 299 294 293 292 285 279 276 272 271 274 273 275 279 278 275
67 65 63 61 60 62 64 64 63 59 56 54 51 47 46 41 31 27 22 15 21 26 23 32 35 28 39 40 25 22 11 358 6 13 15 20 14 3 7 3 356 2 355 336 315 293 320 330 326 321 299 300 330 5 12 6 353 338 337 337 332 328 313 287 283 311 335 342 337 323 310 300 292 288 284 278 274 271 276 280 282 290 287 267 265
64 63 63 61 56 54 52 53 56 54 52 49 41 37 40 35 27 21 5 351 9 30 21 18 19 14 18 15 5 16 8 339 351 7 13 24 26 14 11 7 1 359 350 337 310 261 285 307 301 279 262 285 319 355 4 3 357 343 335 331 329 339 347 334 322 323 325 331 332 322 312 307 302 294 286 281 276 270 270 273 277 294 301 288 285
63 60 60 59 56 52 47 42 42 43 42 37 30 27 30 26 20 14 1 358 16 26 11 3 2 357 354 346 334 348 344 315 322 348 3 20 29 22 19 13 1 356 353 349 341 315 300 303 296 275 259 281 308 330 339 349 351 343 334 326 319 320 326 327 327 327 323 322 322 314 305 301 297 290 285 282 277 267 262 267 269 274 288 295 297
58 57 55 54 52 50 45 39 36 35 32 27 23 21 19 16 12 7 2 4 10 7 354 349 347 341 341 338 326 319 309 295 297 313 336 2 17 15 16 14 1 352 350 349 344 337 333 329 313 290 286 293 300 311 322 332 337 333 327 320 311 307 309 312 315 316 314 311 308 305 301 294 286 281 279 276 269 259 253 258 261 254 260 277 286
54 53 51 50 48 45 43 40 36 34 30 23 18 16 15 11 7 2 359 359 356 346 337 330 324 322 327 326 319 314 302 287 288 297 314 353 12 5 360 358 350 342 340 341 339 336 338 345 353 347 329 321 315 312 315 321 323 321 317 310 306 306 306 305 303 304 306 305 303 301 296 288 277 269 267 267 266 262 255 250 247 243 242 250 264
48 47 47 44 40 37 36 36 37 35 29 21 14 12 9 3 358 348 338 341 342 336 335 334 332 336 340 340 343 347 350 343 321 313 322 353 7 1 353 348 343 336 333 331 328 328 333 343 357 360 342 330 322 316 315 313 311 310 310 308 305 304 302 300 298 297 297 296 295 296 293 290 283 272 264 260 256 254 255 250 239 235 241 244 246
44 44 42 35 36 37 26 19 29 32 20 7 357 350 341 340 350 349 344 350 357 0 4 6 5 6 10 11 11 18 33 41 30 16 14 14 12 5 357 352 348 344 337 328 320 317 319 321 321 322 321 318 314 313 312 310 308 306 306 306 305 302 300 299 297 293 290 287 286 286 287 288 288 286 282 276 267 261 257 247 233 227 237 246 245
35 42 38 28 29 33 21 15 22 20 5 353 350 351 351 356 3 3 7 18 25 25 20 17 16 17 18 14 12 23 44 51 45 38 28 18 12 4 356 352 349 344 339 333 327 321 315 308 303 304 305 304 304 305 305 304 303 304 305 306 304 302 302 302 298 292 287 283 279 278 280 281 281 283 286 288 290 291 278 246 229 230 241 247 249
33 38 37 29 25 24 19 15 13 9 4 2 1 0 3 9 14 20 28 35 36 29 21 20 21 19 14 11 12 21 34 36 25 14 7 3 360 356 351 347 342 338 333 329 326 322 317 313 309 307 305 304 303 302 301 301 300 300 301 303 301 301 305 305 300 293 287 282 278 277 278 282 285 288 291 293 293 298 298 276 247 241 244 247 248
32 35 36 32 24 19 16 9 3 6 11 7 3 6 12 19 30 39 39 37 34 31 28 28 24 17 12 14 14 11 13 13 6 358 355 355 352 349 347 345 342 340 336 329 324 322 319 317 313 310 307 306 306 304 303 304 304 302 301 300 297 295 297 297 293 287 284 288 295 299 301 308 314 315 318 324 324 321 321 316 298 277 266 265 266
33 36 35 29 21 15 9 3 3 10 13 6 7 14 15 21 42 48 41 36 36 36 37 34 25 16 16 17 11 4 1 0 357 354 353 352 349 345 343 341 339 337 333 328 324 322 320 318 316 314 312 311 310 309 309 310 311 309 307 303 296 291 290 291 286 279 279 286 296 306 315 321 326 329 332 337 338 336 333 329 319 304 293 287 285
38 38 29 22 17 10 5 6 10 15 14 12 15 17 15 30 57 60 52 52 53 49 45 40 30 21 20 19 14 7 3 359 357 356 354 352 349 346 343 340 339 337 333 329 326 325 328 329 325 320 316 313 311 314 319 324 326 326 324 320 309 295 288 289 283 271 270 279 288 299 311 316 319 326 330 330 330 331 331 331 324 311 296 282 278
39 36 26 18 14 8 9 18 20 17 18 18 18 23 30 49 69 72 69 65 62 57 55 52 46 39 34 28 21 14 7 3 2 1 360 356 351 346 342 339 337 335 334 335 337 341 344 341 336 336 338 339 345 352 355 357 358 356 355 356 354 341 324 322 317 302 297 318 332 338 345 342 335 334 331 324 318 316 319 326 329 318 298 273 266
35 31 22 16 15 15 20 27 23 18 20 18 18 38 58 65 72 79 77 66 56 55 60 63 59 51 42 34 27 20 13 10 11 12 12 10 6 2 1 1 359 357 359 6 9 7 2 360 3 8 11 13 14 13 12 14 15 12 10 12 17 20 19 15 6 356 358 11 15 13 14 9 2 357 351 343 337 328 324 332 338 329 317 303 293
33 25 17 16 22 27 29 28 23 19 22 21 19 42 70 80 81 78 73 66 61 62 66 67 58 47 41 37 32 30 27 23 21 21 21 23 26 30 32 33 32 31 31 33 32 25 19 21 25 22 19 19 19 18 18 20 20 18 17 17 19 20 20 22 23 17 15 19 23 21 18 15 12 8 5 1 358 355 355 355 352 342 331 315 299
36 24 16 22 33 36 32 29 27 23 26 31 28 28 56 87 93 87 76 70 69 68 67 64 53 42 40 38 33 35 35 29 23 23 26 30 33 37 39 38 37 37 36 34 33 31 29 30 29 26 25 24 23 22 21 20 19 18 18 18 18 17 16 17 18 19 17 18 19 18 13 8 6 4 1 359 359 0 3 2 359 353 338 312 284
41 29 21 28 38 38 32 30 31 28 27 36 38 29 33 62 95 108 102 89 81 72 64 60 52 40 35 34 33 37 39 34 28 27 29 30 31 33 35 36 36 36 36 35 33 32 31 30 29 28 27 25 22 21 20 20 19 17 14 15 15 13 12 12 12 12 11 10 10 11 7 3 3 1 358 357 357 356 357 0 1 358 352 340 326
42 35 30 33 39 39 35 34 31 28 26 26 27 32 35 33 42 75 95 97 89 68 54 50 44 34 26 24 25 31 38 37 33 30 29 29 30 31 32 34 35 35 35 33 32 31 29 28 28 26 25 23 21 19 19 20 20 17 14 13 14 11 8 8 9 8 7 6 6 6 3 1 2 1 359 358 356 354 357 1 0 356 353 348 344
36 34 34 37 39 38 37 34 27 25 27 27 24 26 30 29 30 39 43 31 19 29 38 38 33 26 20 16 13 17 29 36 33 30 30 30 30 30 31 31 31 32 32 30 29 29 27 27 27 26 24 22 19 17 18 18 18 18 15 11 11 11 9 8 8 5 4 3 2 1 359 357 357 358 358 357 354 353 356 358 354 349 347 343 338
37 32 27 29 33 37 38 35 29 27 30 33 31 27 25 26 29 36 38 26 14 20 37 38 28 20 16 12 9 13 25 31 30 30 30 29 28 31 32 29 26 27 28 26 24 25 25 25 25 25 23 21 18 17 17 15 14 14 14 10 10 11 10 8 8 6 2 360 357 355 355 354 352 352 353 352 352 352 351 348 346 344 342 339 334
49 39 23 18 22 33 38 36 31 30 33 38 39 33 28 31 32 32 37 36 21 19 39 46 34 21 13 8 7 13 21 25 26 28 28 26 28 32 32 29 26 24 24 22 21 22 24 24 23 22 20 19 17 15 14 14 12 10 10 9 9 10 10 9 8 6 2 359 357 354 352 350 349 347 346 343 342 341 339 337 338 337 337 336 332
64 51 30 21 25 32 35 30 26 27 32 40 44 36 26 27 29 26 29 34 27 22 37 51 43 26 14 6 3 7 14 21 23 24 24 24 27 28 28 28 28 25 23 21 19 19 22 23 22 22 20 18 17 16 15 14 11 9 10 11 10 10 10 10 8 6 4 1 359 357 354 351 348 345 341 336 332 328 327 327 327 325 323 322 317
63 53 38 31 33 37 38 33 29 29 30 34 40 38 30 27 28 24 23 27 26 22 29 48 50 35 21 9 2 4 11 21 22 20 21 22 23 24 24 23 24 23 22 20 18 16 16 17 18 19 17 15 14 13 12 12 10 8 11 14 13 12 12 9 6 4 3 2 0 358 356 353 350 346 343 340 335 328 324 323 323 323 323 323 322
37 45 40 33 31 37 42 41 37 35 34 32 32 33 32 30 30 27 21 20 24 24 26 40 56 47 30 15 6 5 13 21 20 17 19 19 19 21 22 19 17 18 18 18 17 14 11 11 13 12 10 10 9 7 5 8 9 8 11 17 18 16 13 9 4 0 357 355 355 355 353 352 349 347 345 343 340 336 331 327 324 323 324 326 326
20 31 36 31 27 30 38 42 42 39 37 35 31 29 30 30 28 29 26 19 19 24 27 32 46 47 34 21 12 11 18 25 21 16 16 17 16 19 21 17 12 11 13 15 16 12 8 7 9 7 5 6 6 3 0 2 4 7 13 19 19 15 12 9 5 359 353 348 347 347 347 347 346 345 343 341 340 338 335 333 330 328 326 324 321
17 19 24 25 25 27 28 33 39 41 39 38 33 28 28 30 28 26 26 20 13 15 25 28 29 31 28 21 16 15 19 24 22 16 14 15 13 14 18 17 10 7 9 11 12 10 5 4 5 5 3 3 3 1 358 358 1 8 17 17 11 9 9 6 3 358 353 347 342 341 340 340 340 339 338 337 336 334 332 332 331 330 329 327 323
14 15 15 16 21 25 26 25 28 31 29 30 32 28 26 32 33 25 22 19 10 5 15 25 20 15 17 17 16 16 16 17 17 15 12 12 12 11 13 13 8 5 5 7 8 7 4 2 3 3 0 360 0 358 356 355 358 6 15 9 2 1 1 359 357 355 352 346 340 336 335 335 334 333 332 332 331 329 326 325 325 326 327 327 325
1 8 6 11 17 19 19 20 23 22 11 359 16 32 26 26 32 29 20 14 7 0 5 16 15 11 13 13 13 15 14 11 11 10 7 8 11 11 10 8 5 3 3 4 4 4 2 0 1 360 357 358 358 356 354 355 355 353 354 353 352 353 354 354 354 353 349 342 336 333 333 333 332 328 325 325 324 322 320 319 318 319 321 321 321
359 4 347 350 9 12 7 8 4 3 5 3 7 19 21 17 20 25 20 11 3 357 358 6 9 8 11 13 13 12 10 7 6 5 3 4 8 9 6 3 1 0 0 1 1 0 360 359 358 356 354 355 354 353 354 355 350 337 339 348 350 351 351 350 350 348 343 337 333 333 333 331 328 325 322 320 317 315 313 311 310 311 312 311 310
355 11 340 335 349 354 355 4 354 342 355 15 6 360 6 8 6 11 12 5 357 353 354 0 5 5 6 10 11 8 5 3 1 359 358 359 3 4 2 358 357 357 357 357 356 356 356 356 354 352 351 351 350 352 355 355 341 327 333 341 344 345 345 344 344 344 340 336 335 336 335 331 326 323 321 319 316 312 309 307 305 304 303 302 302
336 359 332 322 328 327 324 346 348 322 320 346 1 351 351 352 351 360 3 355 349 352 354 356 358 360 1 4 5 3 1 359 356 354 355 356 358 359 358 356 354 353 353 353 353 353 353 352 351 350 349 347 347 348 347 336 319 318 325 331 336 339 340 341 342 343 341 338 338 339 336 331 327 325 322 320 316 313 311 308 305 300 297 297 300
313 335 345 329 324 319 317 324 324 309 307 321 340 340 343 340 338 349 360 351 344 349 355 352 351 353 356 357 357 356 355 354 352 350 351 351 353 354 353 351 350 351 350 348 348 349 349 348 347 347 345 345 345 343 330 313 311 316 321 327 333 337 338 339 342 344 343 342 341 338 333 329 329 328 324 320 316 314 312 311 309 307 307 307 306
311 336 359 322 308 308 310 309 307 307 314 323 321 323 335 338 330 334 353 352 342 342 347 349 346 345 349 352 351 349 350 351 349 347 345 346 347 347 346 346 347 347 345 344 344 345 344 343 344 343 341 341 342 335 316 306 310 316 321 327 333 334 335 337 342 344 343 342 341 339 331 325 326 326 322 318 317 316 315 315 316 316 317 315 311
318 325 337 312 302 306 308 302 302 308 313 314 314 316 323 327 325 328 339 345 341 338 339 341 340 340 344 346 345 344 344 344 342 340 340 341 340 339 340 343 343 341 341 341 341 341 340 339 339 338 336 337 339 331 312 305 310 317 322 327 330 330 331 336 341 342 342 342 343 340 331 322 321 321 319 318 318 318 317 317 317 316 315 312 309
308 311 315 297 287 291 295 295 300 305 305 305 308 307 305 310 324 327 326 331 338 335 330 328 332 337 339 338 336 336 336 335 334 334 335 335 334 334 337 338 336 336 338 338 336 336 336 335 335 334 332 332 332 323 306 301 307 315 319 323 325 326 329 335 339 340 341 342 343 338 329 322 321 321 320 320 319 319 320 323 322 320 317 313 309
Height
793 794 795 797 798 798 800 802 802 802 804 804 803 804 805 807 808 809 809 809 809 810 810 809 809 810 810 810 810 811 811 811 811 811 811 811 811 812 813 813 813 813 814 814 814 814 814 813 813 813 813 813 813 813 813 813 813 812 812 812 812 812 812 812 811 810 810 811 811 810 811 810 808 807 808 807 808 809 809 808 808 807 807 807 807
793 794 795 797 798 799 801 802 803 804 806 805 804 805 805 806 808 808 808 808 808 809 809 808 808 809 809 809 809 809 810 810 810 810 810 810 810 811 812 812 812 812 813 813 813 813 813 812 812 812 812 812 812 812 812 812 811 811 811 811 811 811 811 811 810 810 809 809 810 810 809 809 809 808 808 807 807 808 807 806 807 806 807 807 807
793 794 795 797 799 799 800 800 804 808 808 805 805 805 805 806 806 807 807 807 807 808 808 808 808 808 808 808 808 808 809 809 809 809 809 809 810 811 811 811 811 812 812 811 811 812 812 811 811 811 811 811 810 811 811 811 810 810 811 811 811 810 810 810 809 809 808 808 808 809 809 809 809 809 809 808 807 807 805 805 805 805 805 806 807
793 794 796 798 799 800 800 801 805 809 808 806 806 806 806 806 806 807 807 807 807 807 807 807 808 807 807 807 807 808 808 808 808 808 808 809 810 811 810 810 810 810 810 809 810 811 811 811 810 810 810 810 809 809 809 810 809 809 810 810 809 809 809 809 808 808 807 807 807 807 808 808 808 807 807 807 806 805 804 803 803 803 804 804 805
794 795 797 799 800 802 803 804 806 808 808 807 806 805 805 806 806 807 808 808 807 807 807 807 807 807 807 807 808 808 808 808 808 808 808 809 810 810 810 809 809 808 808 809 809 809 810 810 809 809 808 808 808 808 808 809 808 808 809 808 808 808 808 808 807 807 807 807 805 805 806 806 806 805 805 804 804 803 803 802 802 802 802 803 803
795 797 799 801 802 804 805 805 806 806 807 807 806 805 805 806 807 807 808 808 807 807 807 807 808 808 808 808 808 808 808 808 808 809 809 809 809 809 809 808 808 808 808 809 808 808 808 808 808 807 807 806 806 807 807 808 807 807 807 807 807 807 807 806 806 805 806 805 804 803 804 804 804 802 802 802 802 801 801 801 801 800 801 801 801
796 798 800 802 803 804 804 804 805 806 806 806 807 807 807 807 807 807 808 808 807 807 807 808 808 809 809 809 809 809 808 808 808 808 808 808 809 809 808 808 808 808 809 809 808 808 807 807 807 806 806 806 806 806 806 806 806 806 806 806 806 806 805 805 804 804 804 804 803 802 802 802 801 800 800 800 800 800 799 799 799 799 798 799 799
798 800 801 802 803 804 804 805 805 806 806 806 807 808 807 808 808 808 809 809 809 808 808 808 809 809 809 809 809 809 808 808 808 808 808 808 808 808 808 808 808 808 808 808 808 808 807 807 806 806 806 806 805 805 805 805 805 805 805 805 805 804 804 803 803 803 803 803 802 802 801 800 799 798 798 798 797 797 797 797 797 797 797 797 797
800 802 802 802 804 805 805 806 806 807 807 807 808 808 808 809 809 809 810 810 810 810 809 809 809 809 809 809 809 809 808 808 808 807 808 807 807 807 807 808 808 807 807 807 807 807 807 806 806 806 806 806 805 805 805 805 804 804 804 803 803 803 803 802 802 802 802 801 801 801 800 799 798 797 796 796 796 796 796 796 796 796 796 796 796
801 803 803 804 805 806 807 807 808 808 808 808 809 809 809 810 810 811 811 811 811 811 810 810 810 810 810 809 810 809 808 808 807 807 807 806 807 807 806 807 807 807 807 806 806 807 806 806 806 806 806 806 805 805 804 804 803 803 802 802 802 802 802 802 801 801 801 800 799 799 798 797 796 796 795 795 795 795 795 795 795 795 795 795 795
802 803 804 805 806 807 808 808 808 809 809 810 810 810 811 811 812 813 813 813 813 812 812 812 811 811 811 811 811 810 809 809 808 807 807 806 806 806 806 807 807 807 807 807 807 807 806 806 806 806 806 806 805 805 804 803 803 802 802 801 801 801 801 801 800 800 800 799 798 798 797 796 795 795 795 795 795 794 794 794 794 794 794 794 793
802 804 804 806 807 807 808 809 809 810 810 811 812 812 813 813 814 814 814 814 814 814 813 813 812 812 812 812 812 811 810 810 809 808 807 807 807 807 807 807 807 807 807 807 807 807 806 807 806 806 806 805 805 804 804 803 802 802 801 801 801 801 800 800 799 799 799 799 798 797 797 796 795 795 795 795 795 794 794 793 794 793 793 792 792
804 805 805 807 807 808 809 809 810 811 811 812 813 813 814 814 815 815 815 815 815 814 814 813 813 813 813 812 813 813 812 812 810 809 809 808 808 808 808 808 809 808 808 808 808 807 807 807 807 806 806 805 805 804 804 803 802 801 801 800 800 800 800 800 799 799 799 798 797 797 796 795 795 795 795 795 794 794 794 794 794 793 792 791 791
807 808 808 809 809 810 811 811 811 812 813 813 814 814 815 815 815 815 815 815 814 814 814 814 813 814 813 813 813 813 813 813 812 811 810 809 809 809 809 809 809 809 809 809 809 808 808 808 807 807 806 805 805 804 803 802 802 801 801 799 799 799 798 799 799 799 799 798 797 797 795 795 794 794 794 794 794 794 794 793 793 792 791 790 789
810 810 811 811 812 812 813 813 813 814 814 814 814 815 815 815 815 815 814 814 814 813 814 813 813 814 814 814 813 813 813 813 812 812 811 810 810 810 809 809 809 809 809 809 809 809 808 808 808 807 806 806 806 805 803 802 802 801 801 799 799 799 798 798 798 798 798 797 797 796 795 795 794 794 794 794 794 794 793 793 792 791 791 790 788
812 812 813 813 814 814 814 814 815 814 815 815 815 815 815 815 815 814 814 814 813 813 813 813 813 814 814 814 814 813 813 813 812 812 811 811 810 810 809 808 808 809 808 808 809 808 808 808 807 807 806 806 805 805 804 803 803 802 801 800 800 800 798 798 797 797 796 796 796 796 795 794 794 794 794 794 793 793 793 792 791 791 790 790 788
814 814 815 815 815 816 815 815 816 816 816 816 816 816 816 816 815 815 814 814 813 813 813 813 814 814 814 814 814 814 814 813 812 812 811 811 810 810 809 808 808 808 808 808 808 807 807 807 806 806 805 804 804 804 804 804 804 803 803 801 800 800 798 798 797 797 796 795 795 795 794 794 794 793 793 793 793 793 792 791 791 791 790 789 787
816 816 817 817 817 817 817 817 817 817 817 817 817 817 817 817 816 816 815 814 814 814 814 814 815 815 814 814 814 814 813 812 812 812 811 811 810 809 809 809 808 808 808 807 807 806 806 805 804 804 804 804 804 804 803 803 803 803 803 802 801 800 799 799 799 797 796 795 794 794 794 793 793 792 792 792 791 791 791 790 790 790 789 788 786
818 818 818 819 819 819 819 819 819 819 819 818 818 818 817 817 817 817 816 816 815 815 816 815 815 815 815 814 813 812 812 811 811 811 811 811 810 809 809 809 809 809 808 807 807 806 805 804 803 804 805 804 804 804 803 803 802 802 803 802 801 801 800 799 799 797 796 795 793 793 793 792 792 791 790 790 789 789 788 788 788 788 787 786 785
820 820 821 821 821 821 821 821 821 820 820 819 819 819 818 818 818 818 817 817 817 816 816 815 815 815 814 814 813 812 811 810 810 810 810 811 811 810 810 810 809 809 809 808 807 807 806 805 804 805 805 804 804 804 803 803 802 802 802 801 801 800 799 798 797 797 796 794 793 792 791 790 790 789 788 787 787 786 786 785 785 786 785 785 785
822 823 823 823 823 823 822 822 822 821 821 821 820 820 820 819 819 818 818 818 817 816 815 815 814 814 814 813 812 811 810 809 809 809 810 811 812 812 812 811 811 810 809 809 808 807 807 806 805 805 805 805 805 804 804 803 802 801 801 800 800 799 798 797 796 795 794 793 792 791 790 788 787 786 785 785 784 783 783 783 783 783 783 783 783
824 824 824 824 824 823 823 823 822 822 822 822 821 821 821 820 819 818 818 817 816 815 815 814 814 814 814 814 813 812 811 810 810 811 812 813 813 813 813 813 812 811 810 809 809 808 808 807 806 806 806 806 805 804 803 802 801 800 800 799 798 797 796 795 794 793 792 791 790 790 788 787 786 784 783 782 781 780 780 780 780 779 780 780 781
826 826 825 825 825 824 824 824 823 823 823 823 822 822 821 820 819 818 817 817 816 815 815 815 816 816 816 815 815 814 813 812 813 814 815 815 814 814 814 813 812 811 810 810 809 808 808 807 806 806 805 804 804 803 802 801 799 798 797 796 795 795 794 793 792 791 790 789 789 788 786 786 785 783 782 781 779 778 778 777 777 777 777 777 778
828 827 827 827 826 826 825 825 825 824 824 823 823 822 821 820 819 819 818 817 817 817 817 818 818 818 818 818 818 817 816 815 815 815 815 815 814 814 813 813 812 811 810 809 809 808 807 806 805 804 803 802 801 800 800 799 797 796 795 794 793 792 791 790 789 788 788 787 787 785 784 784 783 782 781 780 779 778 777 776 777 776 776 775 775
829 828 828 828 827 827 827 826 826 825 825 824 823 822 822 820 820 820 819 819 820 820 821 821 821 821 821 821 820 820 819 817 817 817 816 816 815 814 814 813 812 811 810 809 808 807 806 804 803 802 801 800 799 798 797 796 795 793 792 791 790 789 789 788 786 786 786 785 785 784 783 782 782 781 780 779 778 778 777 777 776 775 774 774 773
831 831 831 830 830 829 829 828 828 827 826 825 824 823 823 822 821 821 821 822 823 823 823 824 824 824 824 824 823 823 821 819 818 817 817 816 815 814 814 813 812 811 810 809 807 806 805 803 802 800 799 798 797 795 794 793 791 790 789 788 787 786 786 785 784 784 784 783 783 783 781 781 781 780 779 778 778 778 778 778 777 775 773 773 772
834 833 833 833 832 832 831 830 829 828 827 827 826 825 824 824 823 823 824 825 825 826 826 827 827 827 827 827 826 825 823 822 820 818 817 816 815 814 813 812 811 810 809 808 807 805 804 802 801 799 798 796 795 793 792 791 789 788 787 786 785 784 783 783 782 782 782 781 781 780 780 780 780 778 777 777 777 777 777 777 776 774 773 774 773
836 835 835 835 834 833 832 832 831 830 830 829 828 827 827 826 826 826 827 828 828 829 830 830 830 830 830 829 828 827 825 824 822 820 818 817 815 814 812 811 810 809 808 807 806 804 803 801 800 798 796 795 793 792 791 790 789 788 787 785 784 783 782 782 781 781 780 779 779 778 779 779 779 777 776 776 775 776 775 775 774 772 771 772 772
837 837 837 837 836 835 834 833 833 832 832 831 831 830 829 828 828 829 830 831 831 831 832 832 833 833 832 831 830 829 828 826 824 823 821 819 817 814 812 811 809 808 807 806 805 803 802 801 799 798 796 795 794 793 792 791 790 789 788 786 785 784 784 784 783 783 782 780 780 779 778 778 777 776 776 775 774 774 773 773 772 771 769 769 769
839 839 839 838 837 837 836 835 835 834 834 833 833 832 831 831 830 831 833 833 833 833 834 834 835 834 833 833 832 831 830 829 827 825 822 819 817 815 812 811 809 808 807 806 804 803 803 802 801 800 799 798 796 795 795 794 792 791 790 789 788 787 786 786 786 786 785 783 781 781 780 779 778 777 776 775 774 773 772 771 771 770 769 769 768
841 841 840 840 839 838 838 838 837 837 836 835 835 835 834 834 835 835 835 835 835 835 835 835 836 835 835 834 833 833 832 830 828 825 822 819 817 815 813 812 810 809 808 807 806 806 805 805 804 803 802 801 800 799 798 797 795 794 792 791 791 789 788 787 786 787 786 784 782 782 781 780 779 778 777 776 775 774 773 771 770 770 769 768 768
843 843 842 841 841 840 840 840 839 839 838 837 837 837 836 837 837 838 838 837 836 836 836 836 837 837 836 835 834 833 832 830 828 825 822 820 818 816 815 814 813 811 810 809 809 809 808 807 806 806 805 804 803 802 801 800 798 797 795 794 793 792 791 790 789 788 787 785 784 784 783 781 780 779 777 776 775 774 773 772 771 769 768 767 766
845 845 844 843 843 843 843 842 842 841 840 840 839 839 838 838 838 839 839 839 838 838 836 836 838 838 837 836 835 834 832 831 828 826 824 822 820 819 818 817 815 814 813 812 812 811 811 810 809 809 808 807 806 805 804 802 801 800 799 797 796 795 794 792 791 790 788 787 786 785 784 783 781 779 778 776 775 774 773 772 771 770 768 767 766
847 847 846 845 845 845 845 844 844 843 842 842 841 840 839 840 839 839 839 840 839 838 837 837 838 839 838 837 836 834 833 831 829 828 826 824 822 821 820 819 818 817 816 815 815 814 814 813 812 812 811 810 809 808 806 805 805 803 802 801 800 798 797 795 793 792 791 790 789 787 786 785 783 781 780 778 776 774 773 772 771 770 770 769 768
849 849 848 848 847 847 847 847 846 845 844 844 843 842 842 841 841 840 841 841 840 839 839 839 840 840 839 838 836 835 833 832 831 829 828 826 824 823 822 821 820 819 819 818 818 817 817 816 815 815 814 813 812 811 810 809 808 806 805 804 802 801 799 798 796 795 793 792 791 789 788 786 785 783 781 779 777 776 774 773 772 771 770 769 768
851 851 850 850 849 849 849 849 848 847 847 846 845 845 844 843 843 842 842 842 842 841 841 841 841 841 840 838 837 835 834 833 832 831 830 828 827 825 824 823 822 822 821 821 820 820 819 818 818 817 816 815 815 813 812 811 810 809 808 806 805 803 802 800 799 797 796 794 792 790 789 787 786 784 782 780 779 777 775 774 772 771 770 769 768
853 853 852 851 851 851 850 850 849 849 848 847 847 847 846 845 845 844 844 844 843 842 842 842 842 842 841 839 838 836 835 834 834 833 831 830 829 827 827 826 826 825 824 823 823 822 821 820 820 819 818 817 816 815 814 813 812 811 809 808 807 805 804 802 801 799 797 795 794 792 790 788 787 785 783 781 779 778 776 774 772 771 770 769 767
854 855 854 853 852 852 852 851 850 850 849 848 848 848 847 847 846 845 845 844 844 844 843 843 844 844 843 841 840 838 836 836 835 834 833 832 831 830 829 829 828 828 827 826 825 824 823 822 822 821 820 819 818 817 816 814 813 812 811 809 808 807 806 804 802 801 799 797 795 793 792 790 788 786 784 782 780 778 776 774 773 771 769 768 766
854 855 855 854 853 853 853 853 852 851 851 850 850 850 849 849 848 847 847 846 846 845 845 845 845 846 845 844 842 840 838 837 837 836 835 834 833 833 832 831 830 830 829 828 827 826 825 824 823 822 821 820 819 818 817 815 814 813 812 811 809 808 807 806 804 802 801 799 797 795 793 791 789 787 785 783 781 778 776 774 773 771 769 767 765
855 856 856 855 855 854 854 854 854 853 852 852 852 851 851 850 850 849 849 848 847 847 846 846 847 847 846 845 844 841 840 840 839 838 838 837 836 835 834 833 832 831 830 829 829 828 826 825 824 823 822 821 820 819 817 816 815 814 813 812 811 810 809 808 806 804 802 800 798 796 794 792 790 788 785 783 781 779 777 775 773 771 769 767 765
856 857 857 856 856 856 855 855 855 854 854 854 853 852 852 852 851 851 851 850 849 848 848 848 848 847 847 846 845 843 842 842 841 841 840 839 838 837 836 835 834 833 832 831 830 829 828 827 826 824 823 822 821 820 818 817 815 814 813 812 812 811 810 809 807 806 804 801 799 797 795 793 791 788 786 784 782 780 777 775 773 771 769 767 765
858 858 857 857 857 856 856 856 856 855 855 855 854 854 853 853 852 852 852 851 851 850 849 849 849 848 847 847 846 845 844 843 842 842 841 840 839 838 837 837 836 834 833 832 831 830 829 828 827 826 824 823 822 820 819 817 816 815 814 813 812 811 810 809 808 806 804 802 800 798 795 793 791 788 786 784 782 780 778 775 773 771 769 767 765
858 858 858 858 857 857 857 856 856 856 856 855 855 855 854 854 853 853 853 852 852 851 850 849 849 849 848 847 847 846 845 844 843 843 842 841 840 839 838 838 837 836 835 834 832 832 830 829 828 827 826 824 823 822 820 819 817 815 814 813 812 812 811 809 807 806 804 802 800 798 795 793 790 788 786 784 782 780 778 775 773 771 769 767 765
858 858 858 858 858 858 857 857 857 856 856 855 855 855 854 854 854 854 853 853 852 851 850 850 849 849 848 848 847 846 845 844 844 843 843 842 841 840 840 839 838 837 835 834 833 832 831 830 829 828 826 825 824 822 821 820 817 815 814 814 813 812 811 809 807 806 804 802 800 797 794 792 790 788 786 783 781 779 777 774 772 770 768 767 765
858 859 859 858 858 858 858 857 857 857 856 856 855 855 855 854 854 854 854 854 853 852 851 850 849 849 848 848 847 847 846 845 845 844 843 842 842 841 840 839 838 837 836 835 834 833 832 830 829 828 827 826 824 823 822 820 817 815 814 814 813 812 811 810 808 806 805 802 799 796 793 791 789 787 785 782 780 778 776 773 772 769 767 766 764
857 858 859 858 858 858 858 858 858 857 856 856 856 855 855 855 854 854 854 854 853 852 851 850 850 849 848 848 847 847 846 846 845 844 844 843 842 841 841 840 838 837 836 835 834 833 832 831 830 828 827 826 825 824 823 820 817 815 815 814 813 812 811 810 808 806 804 801 798 795 792 790 788 786 783 781 779 777 774 772 770 768 766 764 762
857 858 859 859 858 858 858 857 857 857 856 856 856 856 855 855 854 854 854 853 853 852 851 850 850 849 849 848 848 847 847 846 846 845 844 843 842 841 841 840 839 838 836 835 834 833 832 831 830 829 828 826 825 824 822 820 818 816 815 815 814 812 811 809 807 805 803 800 797 794 792 789 786 784 782 780 778 776 773 771 768 766 764 762 760
856 856 858 859 858 858 857 857 857 856 856 855 855 855 855 855 854 854 854 853 852 852 851 851 850 849 849 848 848 847 847 847 846 845 844 843 842 841 841 839 838 837 836 835 834 833 832 831 830 829 827 826 825 823 821 819 818 817 815 814 813 812 810 809 807 804 802 799 796 793 791 788 786 783 781 779 777 775 772 769 767 764 762 760 758
855 855 857 858 859 858 857 857 856 856 855 855 855 855 855 854 854 853 853 853 853 852 851 851 850 850 849 849 848 847 847 846 845 845 844 843 842 841 840 839 838 837 836 835 834 833 832 831 830 828 827 826 825 823 821 818 817 816 815 814 813 811 810 808 806 803 801 798 795 792 790 787 785 783 781 779 777 774 771 769 766 763 761 759 757
856 855 856 858 858 858 857 857 856 856 855 855 855 855 854 854 854 853 853 853 853 852 851 851 850 850 849 848 848 847 847 846 845 845 844 843 842 841 840 839 838 836 835 834 833 832 831 830 829 828 827 826 825 823 820 818 817 816 814 813 811 810 808 807 804 802 800 797 794 791 789 787 785 783 781 778 776 773 771 768 765 763 760 758 755
855 854 855 857 857 857 857 856 856 856 855 855 855 855 854 854 854 853 853 853 853 852 851 851 850 849 849 848 848 847 846 846 845 844 843 842 841 840 839 838 837 836 835 834 833 832 831 829 828 827 826 825 824 822 819 817 816 815 813 811 810 808 806 805 803 801 799 796 793 791 789 787 785 783 780 777 775 772 770 767 764 762 759 757 754